THAICOM 4

Last updated on Thu Mar 05 2026 00:02:55 GMT+0000 (Coordinated Universal Time)

1 28786U 05028A 26063.43601572 -.00000374 00000+0 00000+0 0 9994 2 28786 0.0383 270.2529 0002026 90.0427 78.3441 1.00270231 51195
UTC large
Height (km)
Speed (km/s)
/
Latitude / Longitude
Inclination (degrees)
Orbital Period (minutes)
Azimuth
Elevation
Range (km)
Doppler Factor

Next 0 passes for location: London (51.5072 / 0.1276)

Sorry there are no passes over London.